TimeCST,TemperatureF,Dew PointF,Humidity,Sea Level PressureIn,VisibilityMPH,Wind Direction,Wind SpeedMPH,Gust SpeedMPH,PrecipitationIn,Events,Conditions,WindDirDegrees,DateUTC
12:55 AM,50.0,35.1,57,30.01,10.0,NNE,6.9,-,N/A,,Overcast,20,2012-12-11 06:55:00
1:55 AM,48.9,35.1,59,30.00,10.0,NNE,8.1,16.1,N/A,,Mostly Cloudy,20,2012-12-11 07:55:00
2:55 AM,48.0,36.0,63,30.02,10.0,North,6.9,-,N/A,,Overcast,10,2012-12-11 08:55:00
3:55 AM,46.9,35.1,63,30.03,10.0,NNE,10.4,-,N/A,,Partly Cloudy,20,2012-12-11 09:55:00
4:55 AM,46.0,36.0,68,30.03,10.0,North,6.9,-,N/A,,Clear,10,2012-12-11 10:55:00
5:55 AM,44.1,35.1,71,30.05,10.0,North,12.7,20.7,N/A,,Clear,10,2012-12-11 11:55:00
6:15 AM,44.6,35.6,71,30.05,10.0,NNE,8.1,-,N/A,,Scattered Clouds,20,2012-12-11 12:15:00
6:55 AM,44.1,33.1,65,30.06,10.0,North,8.1,-,N/A,,Overcast,360,2012-12-11 12:55:00
7:55 AM,45.0,34.0,65,30.10,10.0,North,4.6,-,N/A,,Overcast,360,2012-12-11 13:55:00
8:55 AM,46.0,33.1,61,30.12,10.0,North,6.9,-,N/A,,Overcast,10,2012-12-11 14:55:00
9:55 AM,46.9,34.0,61,30.12,10.0,North,8.1,-,N/A,,Overcast,10,2012-12-11 15:55:00
10:55 AM,48.0,34.0,58,30.12,10.0,Variable,5.8,-,N/A,,Overcast,0,2012-12-11 16:55:00
11:55 AM,48.9,35.1,59,30.10,10.0,Variable,4.6,-,N/A,,Overcast,0,2012-12-11 17:55:00
12:55 PM,48.0,35.1,61,30.07,8.0,NNE,9.2,-,N/A,,Overcast,20,2012-12-11 18:55:00
1:55 PM,48.0,34.0,58,30.06,10.0,NNE,10.4,-,N/A,,Overcast,20,2012-12-11 19:55:00
2:55 PM,48.0,35.1,61,30.07,10.0,NNE,6.9,-,N/A,,Overcast,20,2012-12-11 20:55:00
3:55 PM,48.0,36.0,63,30.10,10.0,NNE,3.5,-,N/A,,Overcast,30,2012-12-11 21:55:00
4:55 PM,48.0,36.0,63,30.10,10.0,NNE,5.8,-,N/A,,Overcast,20,2012-12-11 22:55:00
5:55 PM,46.9,36.0,66,30.10,10.0,NNE,6.9,-,N/A,,Overcast,30,2012-12-11 23:55:00
6:55 PM,46.9,36.0,66,30.11,10.0,NNE,9.2,-,N/A,,Overcast,20,2012-12-12 00:55:00
7:55 PM,46.0,34.0,63,30.14,10.0,NNE,10.4,-,N/A,,Overcast,30,2012-12-12 01:55:00
8:55 PM,45.0,34.0,65,30.18,10.0,NNE,6.9,-,N/A,,Overcast,20,2012-12-12 02:55:00
9:55 PM,44.1,35.1,71,30.17,10.0,NE,6.9,-,N/A,,Overcast,40,2012-12-12 03:55:00
10:55 PM,44.1,34.0,68,30.19,10.0,NNE,4.6,-,N/A,,Mostly Cloudy,20,2012-12-12 04:55:00
11:55 PM,44.1,34.0,68,30.17,10.0,NNE,9.2,-,N/A,,Partly Cloudy,30,2012-12-12 05:55:00